Tracking 19245 objects as of 18-Aug-2018
HD Live streaming from Space Station
objects crossing your sky now

COSMOS 1529

Track COSMOS 1529 now!
10-day predictions
COSMOS 1529 is classified as:


NORAD ID: 14618
Int'l Code: 1984-001H
Perigee: 1,468.4 km
Apogee: 1,518.3 km
Inclination: 74.0 °
Period: 115.7 minutes
Semi major axis: 7864 km
RCS: 0.6948 m2 (medium)
Launch date: January 5, 1984
Source: Commonwealth of Independent States (former USSR) (CIS)
Launch site: PLESETSK MISSILE AND SPACE COMPLEX (PKMTR)
aabbcc
Your satellite tracking list
Your tracking list is empty




NASA's NSSDC Master Catalog

Two Line Element Set (TLE):
1 14618U 84001H   18228.71675853 -.00000000  00000-0  10830-3 0  9992
2 14618  74.0106 317.8867 0031719 199.0084 317.3092 12.44824821399701
Source of the keplerian elements: AFSPC